Zurück zum Katalog

HAWK-5A

AktivMilitärPO
NORAD 52757·PAYLOAD·🇺🇸 United States

Gestartet May 25, 2022 von Cape Canaveral Space Force Station

Loading…

Nächste Überflüge (nächste 24 Stunden)

TLE

AktuellSource: Space-Track

Epoche: Sep 14, 2026, 10:08 UTC

1 52757U 22057AB  26257.42262136  .00015557  00000-0  23983-3 0  9991
2 52757  97.6693  62.2895 0005449 100.5387 259.6480 15.54251984240190

Verfolge HAWK-5A in Echtzeit mit AllMySat

Download on the App Store